Time,TemperatureF,DewpointF,PressureIn,WindDirection,WindDirectionDegrees,WindSpeedMPH,WindSpeedGustMPH,Humidity,HourlyPrecipIn,Conditions,Clouds,dailyrainin,SoftwareType,DateUTC
2013-11-16 00:02:00,48.5,44.5,30.16,WNW,285,0.0,0.0,86,0.00,,,0.00,Wunderground v.1.13,2013-11-16 05:02:00,
2013-11-16 00:04:00,48.5,44.5,30.16,WNW,285,0.0,0.0,86,0.00,,,0.00,Wunderground v.1.13,2013-11-16 05:04:00,
2013-11-16 00:10:00,48.5,44.5,30.16,WNW,285,0.0,0.0,86,0.00,,,0.00,Wunderground v.1.13,2013-11-16 05:10:00,
2013-11-16 00:16:00,48.5,45.4,30.16,WNW,285,0.0,0.0,89,0.00,,,0.00,Wunderground v.1.13,2013-11-16 05:16:00,
2013-11-16 00:18:00,48.5,45.4,30.16,WNW,285,0.0,0.0,89,0.00,,,0.00,Wunderground v.1.13,2013-11-16 05:18:00,
2013-11-16 00:22:00,48.5,45.4,30.16,WNW,285,0.0,0.0,89,0.00,,,0.00,Wunderground v.1.13,2013-11-16 05:22:00,
2013-11-16 00:24:00,48.5,45.4,30.16,WNW,285,0.0,0.0,89,0.00,,,0.00,Wunderground v.1.13,2013-11-16 05:24:00,
2013-11-16 00:30:00,48.3,45.2,30.15,WNW,285,0.0,0.0,89,0.00,,,0.00,Wunderground v.1.13,2013-11-16 05:30:00,
2013-11-16 00:36:00,48.3,45.2,30.15,WNW,285,0.0,0.0,89,0.00,,,0.00,Wunderground v.1.13,2013-11-16 05:36:00,
2013-11-16 00:42:00,48.2,45.4,30.15,WNW,285,0.0,0.0,90,0.00,,,0.00,Wunderground v.1.13,2013-11-16 05:42:00,
2013-11-16 00:48:00,48.2,45.1,30.15,WNW,285,0.0,0.0,89,0.00,,,0.00,Wunderground v.1.13,2013-11-16 05:48:00,
2013-11-16 00:54:00,48.0,45.2,30.15,WNW,285,0.0,0.0,90,0.00,,,0.00,Wunderground v.1.13,2013-11-16 05:54:00,
2013-11-16 01:00:00,48.0,45.2,30.15,WNW,285,0.0,0.0,90,0.00,,,0.00,Wunderground v.1.13,2013-11-16 06:00:00,
2013-11-16 01:06:00,47.9,45.1,30.15,WNW,285,0.0,0.0,90,0.00,,,0.00,Wunderground v.1.13,2013-11-16 06:06:00,
2013-11-16 01:12:00,47.9,45.4,30.15,WNW,285,0.0,0.0,91,0.00,,,0.00,Wunderground v.1.13,2013-11-16 06:12:00,
2013-11-16 01:18:00,47.7,45.2,30.15,WNW,285,0.0,0.0,91,0.00,,,0.00,Wunderground v.1.13,2013-11-16 06:18:00,
2013-11-16 01:24:00,47.7,45.5,30.15,WNW,285,0.0,0.0,92,0.00,,,0.00,Wunderground v.1.13,2013-11-16 06:24:00,
2013-11-16 01:30:00,47.7,45.5,30.15,WNW,285,0.0,0.0,92,0.00,,,0.00,Wunderground v.1.13,2013-11-16 06:30:00,
2013-11-16 01:36:00,47.7,45.5,30.15,WNW,285,0.0,0.0,92,0.00,,,0.00,Wunderground v.1.13,2013-11-16 06:36:00,
2013-11-16 01:42:00,47.7,45.2,30.15,WNW,285,0.0,0.0,91,0.00,,,0.00,Wunderground v.1.13,2013-11-16 06:42:00,
2013-11-16 01:48:00,47.7,45.5,30.15,WNW,285,0.0,0.0,92,0.00,,,0.00,Wunderground v.1.13,2013-11-16 06:48:00,
2013-11-16 01:54:00,47.7,45.5,30.15,WNW,285,0.0,0.0,92,0.00,,,0.00,Wunderground v.1.13,2013-11-16 06:54:00,
2013-11-16 02:00:00,47.7,45.5,30.15,WNW,285,0.0,0.0,92,0.00,,,0.00,Wunderground v.1.13,2013-11-16 07:00:00,
2013-11-16 02:06:00,47.7,45.5,30.15,WNW,285,0.0,0.0,92,0.00,,,0.00,Wunderground v.1.13,2013-11-16 07:06:00,
2013-11-16 02:12:00,47.7,45.5,30.15,WNW,285,0.0,0.0,92,0.00,,,0.00,Wunderground v.1.13,2013-11-16 07:12:00,
2013-11-16 02:18:00,47.7,45.5,30.15,WNW,285,0.0,0.0,92,0.00,,,0.00,Wunderground v.1.13,2013-11-16 07:18:00,
2013-11-16 02:24:00,47.9,46.0,30.15,WNW,285,0.0,0.0,93,0.00,,,0.00,Wunderground v.1.13,2013-11-16 07:24:00,
2013-11-16 02:30:00,47.9,46.0,30.16,WNW,285,0.0,0.0,93,0.00,,,0.00,Wunderground v.1.13,2013-11-16 07:30:00,
2013-11-16 02:36:00,47.9,46.0,30.16,WNW,285,0.0,0.0,93,0.00,,,0.00,Wunderground v.1.13,2013-11-16 07:36:00,
2013-11-16 02:42:00,47.9,45.7,30.16,WNW,285,0.0,0.0,92,0.00,,,0.00,Wunderground v.1.13,2013-11-16 07:42:00,
2013-11-16 02:48:00,47.9,46.0,30.16,WNW,285,0.0,0.0,93,0.00,,,0.00,Wunderground v.1.13,2013-11-16 07:48:00,
2013-11-16 02:54:00,47.7,45.5,30.16,WNW,285,0.0,0.0,92,0.00,,,0.00,Wunderground v.1.13,2013-11-16 07:54:00,
2013-11-16 03:00:00,47.7,45.5,30.16,WNW,285,0.0,0.0,92,0.00,,,0.00,Wunderground v.1.13,2013-11-16 08:00:00,
2013-11-16 03:06:00,47.7,45.8,30.16,WNW,285,0.0,0.0,93,0.00,,,0.00,Wunderground v.1.13,2013-11-16 08:06:00,
2013-11-16 03:12:00,47.7,45.8,30.16,WNW,285,0.0,0.0,93,0.00,,,0.00,Wunderground v.1.13,2013-11-16 08:12:00,
2013-11-16 03:18:00,47.7,45.8,30.16,WNW,285,0.0,0.0,93,0.00,,,0.00,Wunderground v.1.13,2013-11-16 08:18:00,
2013-11-16 03:24:00,47.7,45.8,30.16,WNW,285,0.0,0.0,93,0.00,,,0.00,Wunderground v.1.13,2013-11-16 08:24:00,
2013-11-16 03:30:00,47.7,45.8,30.16,WNW,285,0.0,0.0,93,0.00,,,0.00,Wunderground v.1.13,2013-11-16 08:30:00,
2013-11-16 03:36:00,47.7,45.8,30.16,WNW,285,0.0,0.0,93,0.00,,,0.00,Wunderground v.1.13,2013-11-16 08:36:00,
2013-11-16 03:42:00,47.9,46.3,30.16,WNW,285,0.0,0.0,94,0.00,,,0.00,Wunderground v.1.13,2013-11-16 08:42:00,
2013-11-16 03:48:00,48.0,46.4,30.17,WNW,285,0.0,0.0,94,0.00,,,0.00,Wunderground v.1.13,2013-11-16 08:48:00,
2013-11-16 03:54:00,48.2,46.6,30.17,WNW,285,0.0,0.0,94,0.00,,,0.00,Wunderground v.1.13,2013-11-16 08:54:00,
2013-11-16 04:00:00,48.5,47.1,30.17,WNW,285,0.0,0.0,95,0.00,,,0.00,Wunderground v.1.13,2013-11-16 09:00:00,
2013-11-16 04:06:00,48.6,47.2,30.17,WNW,285,0.0,0.0,95,0.00,,,0.00,Wunderground v.1.13,2013-11-16 09:06:00,
2013-11-16 04:12:00,48.6,47.2,30.17,WNW,285,0.0,0.0,95,0.00,,,0.00,Wunderground v.1.13,2013-11-16 09:12:00,
2013-11-16 04:18:00,48.8,47.2,30.17,WNW,285,0.0,0.0,94,0.00,,,0.00,Wunderground v.1.13,2013-11-16 09:18:00,
2013-11-16 04:24:00,48.9,47.2,30.17,WNW,285,0.0,0.0,94,0.00,,,0.00,Wunderground v.1.13,2013-11-16 09:24:00,
2013-11-16 04:30:00,48.9,47.2,30.17,WNW,285,0.0,0.0,94,0.00,,,0.00,Wunderground v.1.13,2013-11-16 09:30:00,
2013-11-16 04:36:00,49.1,47.4,30.17,WNW,285,0.0,0.0,94,0.00,,,0.00,Wunderground v.1.13,2013-11-16 09:36:00,
2013-11-16 04:42:00,49.2,47.5,30.17,WNW,285,0.0,0.0,94,0.00,,,0.00,Wunderground v.1.13,2013-11-16 09:42:00,
2013-11-16 04:48:00,49.5,47.8,30.16,WNW,285,0.0,0.0,94,0.00,,,0.00,Wunderground v.1.13,2013-11-16 09:48:00,
2013-11-16 04:54:00,49.5,47.8,30.16,WNW,285,0.0,0.0,94,0.00,,,0.00,Wunderground v.1.13,2013-11-16 09:54:00,
2013-11-16 05:00:00,49.6,47.9,30.16,WNW,285,0.0,0.0,94,0.00,,,0.00,Wunderground v.1.13,2013-11-16 10:00:00,
2013-11-16 05:06:00,49.8,48.1,30.16,WNW,285,0.0,0.0,94,0.00,,,0.00,Wunderground v.1.13,2013-11-16 10:06:00,
2013-11-16 05:14:00,49.9,48.2,30.16,WNW,285,0.0,0.0,94,0.00,,,0.00,Wunderground v.1.13,2013-11-16 10:14:00,
2013-11-16 05:20:00,49.9,48.0,30.17,WNW,285,0.0,0.0,93,0.00,,,0.00,Wunderground v.1.13,2013-11-16 10:20:00,
2013-11-16 05:26:00,50.1,48.2,30.17,WNW,285,0.0,0.0,93,0.00,,,0.00,Wunderground v.1.13,2013-11-16 10:26:00,
2013-11-16 05:32:00,50.1,48.2,30.17,WNW,285,0.0,0.0,93,0.00,,,0.00,Wunderground v.1.13,2013-11-16 10:32:00,
2013-11-16 05:38:00,50.2,48.3,30.17,WNW,285,0.0,0.0,93,0.00,,,0.00,Wunderground v.1.13,2013-11-16 10:38:00,
2013-11-16 05:44:00,50.4,48.5,30.17,WNW,285,0.0,0.0,93,0.00,,,0.00,Wunderground v.1.13,2013-11-16 10:44:00,
2013-11-16 05:50:00,50.4,48.5,30.17,WNW,285,0.0,0.0,93,0.00,,,0.00,Wunderground v.1.13,2013-11-16 10:50:00,
2013-11-16 05:56:00,50.5,48.6,30.17,WNW,285,0.0,0.0,93,0.00,,,0.00,Wunderground v.1.13,2013-11-16 10:56:00,
2013-11-16 06:02:00,50.7,48.5,30.18,WNW,285,0.0,0.0,92,0.00,,,0.00,Wunderground v.1.13,2013-11-16 11:02:00,
2013-11-16 06:08:00,50.7,48.5,30.18,WNW,285,0.0,0.0,92,0.00,,,0.00,Wunderground v.1.13,2013-11-16 11:08:00,
2013-11-16 06:14:00,50.8,48.3,30.18,WNW,285,0.0,0.0,91,0.00,,,0.00,Wunderground v.1.13,2013-11-16 11:14:00,
2013-11-16 06:20:00,50.8,48.3,30.19,WNW,285,0.0,0.0,91,0.00,,,0.00,Wunderground v.1.13,2013-11-16 11:20:00,
2013-11-16 06:26:00,50.8,48.3,30.19,West,280,0.0,0.0,91,0.00,,,0.00,Wunderground v.1.13,2013-11-16 11:26:00,
2013-11-16 06:32:00,51.0,48.5,30.19,WNW,285,0.0,0.0,91,0.00,,,0.00,Wunderground v.1.13,2013-11-16 11:32:00,
2013-11-16 06:38:00,51.0,48.5,30.19,WNW,285,0.0,0.0,91,0.00,,,0.01,Wunderground v.1.13,2013-11-16 11:38:00,
2013-11-16 06:44:00,51.0,48.5,30.19,WNW,285,0.0,0.0,91,0.00,,,0.01,Wunderground v.1.13,2013-11-16 11:44:00,
2013-11-16 06:50:00,51.0,48.5,30.19,WNW,285,0.0,0.0,91,0.00,,,0.01,Wunderground v.1.13,2013-11-16 11:50:00,
2013-11-16 06:56:00,51.0,48.5,30.19,WNW,285,0.0,0.0,91,0.00,,,0.01,Wunderground v.1.13,2013-11-16 11:56:00,
2013-11-16 07:02:00,51.0,48.5,30.19,WNW,285,0.0,0.0,91,0.00,,,0.01,Wunderground v.1.13,2013-11-16 12:02:00,
2013-11-16 07:08:00,51.0,48.5,30.19,WNW,285,0.0,0.0,91,0.00,,,0.01,Wunderground v.1.13,2013-11-16 12:08:00,
2013-11-16 07:14:00,51.0,48.5,30.19,WNW,285,0.0,0.0,91,0.00,,,0.01,Wunderground v.1.13,2013-11-16 12:14:00,
2013-11-16 07:20:00,51.0,48.5,30.19,WNW,285,0.0,0.0,91,0.00,,,0.01,Wunderground v.1.13,2013-11-16 12:20:00,
2013-11-16 07:26:00,51.0,48.5,30.19,WNW,285,0.0,0.0,91,0.00,,,0.01,Wunderground v.1.13,2013-11-16 12:26:00,
2013-11-16 07:32:00,51.1,48.6,30.19,WNW,285,0.0,0.0,91,0.00,,,0.01,Wunderground v.1.13,2013-11-16 12:32:00,
2013-11-16 07:38:00,51.1,48.6,30.19,WNW,285,0.0,0.0,91,0.00,,,0.01,Wunderground v.1.13,2013-11-16 12:38:00,
2013-11-16 07:44:00,51.1,48.6,30.19,WNW,285,0.0,0.0,91,0.00,,,0.01,Wunderground v.1.13,2013-11-16 12:44:00,
2013-11-16 07:50:00,51.3,48.8,30.20,WNW,285,0.0,0.0,91,0.00,,,0.01,Wunderground v.1.13,2013-11-16 12:50:00,
2013-11-16 07:56:00,51.4,48.9,30.20,WNW,284,0.0,0.0,91,0.00,,,0.01,Wunderground v.1.13,2013-11-16 12:56:00,
2013-11-16 08:02:00,51.6,49.1,30.19,WNW,284,0.0,0.0,91,0.00,,,0.01,Wunderground v.1.13,2013-11-16 13:02:00,
2013-11-16 08:08:00,51.7,49.2,30.19,NE,51,0.0,1.0,91,0.00,,,0.01,Wunderground v.1.13,2013-11-16 13:08:00,
2013-11-16 08:14:00,51.7,48.9,30.19,ENE,58,0.0,0.0,90,0.00,,,0.01,Wunderground v.1.13,2013-11-16 13:14:00,
2013-11-16 08:20:00,51.9,49.1,30.19,ENE,58,0.0,0.0,90,0.00,,,0.01,Wunderground v.1.13,2013-11-16 13:20:00,
2013-11-16 08:26:00,52.2,49.4,30.19,ENE,72,0.0,0.0,90,0.00,,,0.01,Wunderground v.1.13,2013-11-16 13:26:00,
2013-11-16 08:32:00,52.3,49.5,30.20,ENE,72,0.0,0.0,90,0.00,,,0.01,Wunderground v.1.13,2013-11-16 13:32:00,
2013-11-16 08:38:00,52.5,49.7,30.20,ENE,72,0.0,0.0,90,0.00,,,0.01,Wunderground v.1.13,2013-11-16 13:38:00,
2013-11-16 08:44:00,52.6,49.8,30.20,ENE,72,0.0,0.0,90,0.00,,,0.01,Wunderground v.1.13,2013-11-16 13:44:00,
2013-11-16 08:50:00,52.8,49.9,30.20,ENE,72,0.0,0.0,90,0.00,,,0.01,Wunderground v.1.13,2013-11-16 13:50:00,
2013-11-16 08:58:00,53.2,50.3,30.20,ENE,72,0.0,0.0,90,0.00,,,0.01,Wunderground v.1.13,2013-11-16 13:58:00,
2013-11-16 09:04:00,53.5,50.3,30.20,ENE,72,0.0,0.0,89,0.00,,,0.01,Wunderground v.1.13,2013-11-16 14:04:00,
2013-11-16 09:10:00,53.6,50.4,30.20,ENE,72,0.0,0.0,89,0.00,,,0.01,Wunderground v.1.13,2013-11-16 14:10:00,
2013-11-16 09:16:00,53.9,50.7,30.21,ENE,72,0.0,0.0,89,0.00,,,0.01,Wunderground v.1.13,2013-11-16 14:16:00,
2013-11-16 09:22:00,54.2,51.0,30.21,ENE,72,0.0,0.0,89,0.00,,,0.01,Wunderground v.1.13,2013-11-16 14:22:00,
2013-11-16 09:28:00,54.5,51.3,30.21,ENE,72,0.0,0.0,89,0.00,,,0.01,Wunderground v.1.13,2013-11-16 14:28:00,
2013-11-16 09:34:00,54.8,51.3,30.20,ENE,72,0.0,0.0,88,0.00,,,0.01,Wunderground v.1.13,2013-11-16 14:34:00,
2013-11-16 09:40:00,55.3,51.5,30.20,ENE,72,0.0,0.0,87,0.00,,,0.01,Wunderground v.1.13,2013-11-16 14:40:00,
2013-11-16 09:46:00,55.6,51.5,30.21,ENE,72,0.0,0.0,86,0.00,,,0.01,Wunderground v.1.13,2013-11-16 14:46:00,
2013-11-16 09:52:00,55.9,51.8,30.21,ENE,72,0.0,0.0,86,0.00,,,0.01,Wunderground v.1.13,2013-11-16 14:52:00,
2013-11-16 09:58:00,56.2,52.1,30.21,ENE,72,0.0,0.0,86,0.00,,,0.01,Wunderground v.1.13,2013-11-16 14:58:00,
2013-11-16 10:04:00,56.5,52.4,30.21,ENE,72,0.0,0.0,86,0.00,,,0.01,Wunderground v.1.13,2013-11-16 15:04:00,
2013-11-16 10:10:00,56.7,52.6,30.21,ENE,72,0.0,0.0,86,0.00,,,0.01,Wunderground v.1.13,2013-11-16 15:10:00,
2013-11-16 10:16:00,57.6,53.4,30.21,ENE,72,0.0,0.0,86,0.00,,,0.01,Wunderground v.1.13,2013-11-16 15:16:00,
2013-11-16 10:22:00,57.6,53.1,30.21,North,359,0.0,2.0,85,0.00,,,0.01,Wunderground v.1.13,2013-11-16 15:22:00,
2013-11-16 10:28:00,57.8,54.0,30.21,North,357,0.0,0.0,87,0.00,,,0.01,Wunderground v.1.13,2013-11-16 15:28:00,
2013-11-16 10:34:00,58.1,53.6,30.21,North,356,0.0,1.0,85,0.00,,,0.01,Wunderground v.1.13,2013-11-16 15:34:00,
2013-11-16 10:40:00,58.4,53.6,30.21,North,357,0.0,0.0,84,0.00,,,0.01,Wunderground v.1.13,2013-11-16 15:40:00,
2013-11-16 10:46:00,59.0,53.8,30.21,North,0,0.0,0.0,83,0.00,,,0.01,Wunderground v.1.13,2013-11-16 15:46:00,
2013-11-16 10:52:00,59.3,53.8,30.21,North,357,0.0,0.0,82,0.00,,,0.01,Wunderground v.1.13,2013-11-16 15:52:00,
2013-11-16 10:58:00,59.6,53.8,30.21,NNE,30,0.0,2.0,81,0.00,,,0.01,Wunderground v.1.13,2013-11-16 15:58:00,
2013-11-16 11:04:00,59.8,53.6,30.20,NNE,30,1.0,1.0,80,0.00,,,0.01,Wunderground v.1.13,2013-11-16 16:04:00,
2013-11-16 11:10:00,59.8,54.0,30.20,NNE,17,0.0,2.0,81,0.00,,,0.01,Wunderground v.1.13,2013-11-16 16:10:00,
2013-11-16 11:16:00,60.1,53.9,30.20,North,354,0.0,0.0,80,0.00,,,0.01,Wunderground v.1.13,2013-11-16 16:16:00,
2013-11-16 11:22:00,60.5,54.3,30.20,North,354,1.0,2.0,80,0.00,,,0.01,Wunderground v.1.13,2013-11-16 16:22:00,
2013-11-16 11:28:00,60.5,54.3,30.20,ENE,66,1.0,1.0,80,0.00,,,0.01,Wunderground v.1.13,2013-11-16 16:28:00,
2013-11-16 11:34:00,60.7,54.1,30.19,ENE,66,0.0,0.0,79,0.00,,,0.01,Wunderground v.1.13,2013-11-16 16:34:00,
2013-11-16 11:40:00,61.2,55.0,30.19,ENE,66,0.0,0.0,80,0.00,,,0.01,Wunderground v.1.13,2013-11-16 16:40:00,
2013-11-16 11:46:00,62.0,55.1,30.19,NNW,328,0.0,0.0,78,0.00,,,0.01,Wunderground v.1.13,2013-11-16 16:46:00,
2013-11-16 11:53:00,62.6,54.9,30.19,NNW,328,0.0,3.0,76,0.00,,,0.01,Wunderground v.1.13,2013-11-16 16:53:00,
2013-11-16 11:58:00,62.7,55.0,30.19,NNW,328,1.0,3.0,76,0.00,,,0.01,Wunderground v.1.13,2013-11-16 16:58:00,
2013-11-16 12:08:00,62.4,54.7,30.19,NW,326,2.0,2.0,76,0.00,,,0.01,Wunderground v.1.13,2013-11-16 17:08:00,
2013-11-16 12:14:00,62.0,55.1,30.19,NW,323,3.0,3.0,78,0.00,,,0.01,Wunderground v.1.13,2013-11-16 17:14:00,
2013-11-16 12:20:00,61.8,54.9,30.19,NNW,343,3.0,3.0,78,0.00,,,0.01,Wunderground v.1.13,2013-11-16 17:20:00,
2013-11-16 12:26:00,61.5,54.9,30.19,NNW,335,3.0,3.0,79,0.00,,,0.01,Wunderground v.1.13,2013-11-16 17:26:00,
2013-11-16 12:32:00,61.3,54.7,30.18,North,0,3.0,6.0,79,0.00,,,0.01,Wunderground v.1.13,2013-11-16 17:32:00,
2013-11-16 12:38:00,61.3,55.1,30.18,NNW,332,3.0,3.0,80,0.00,,,0.01,Wunderground v.1.13,2013-11-16 17:38:00,
2013-11-16 12:44:00,61.3,54.7,30.18,North,349,2.0,3.0,79,0.00,,,0.01,Wunderground v.1.13,2013-11-16 17:44:00,
2013-11-16 12:50:00,61.5,54.9,30.18,North,352,2.0,5.0,79,0.00,,,0.01,Wunderground v.1.13,2013-11-16 17:50:00,
2013-11-16 12:56:00,61.6,55.0,30.18,NNW,344,1.0,3.0,79,0.00,,,0.01,Wunderground v.1.13,2013-11-16 17:56:00,
2013-11-16 13:02:00,62.1,55.5,30.18,North,353,1.0,2.0,79,0.00,,,0.01,Wunderground v.1.13,2013-11-16 18:02:00,
2013-11-16 13:10:00,62.3,55.4,30.18,North,0,1.0,2.0,78,0.00,,,0.01,Wunderground v.1.13,2013-11-16 18:10:00,
2013-11-16 13:18:00,62.7,55.4,30.18,NW,313,2.0,2.0,77,0.00,,,0.01,Wunderground v.1.13,2013-11-16 18:18:00,
2013-11-16 13:24:00,62.7,55.4,30.18,NNW,333,3.0,3.0,77,0.00,,,0.01,Wunderground v.1.13,2013-11-16 18:24:00,
2013-11-16 13:30:00,63.1,55.8,30.17,NNW,328,2.0,3.0,77,0.00,,,0.01,Wunderground v.1.13,2013-11-16 18:30:00,
2013-11-16 13:36:00,63.1,55.4,30.17,NW,320,2.0,3.0,76,0.00,,,0.01,Wunderground v.1.13,2013-11-16 18:36:00,
2013-11-16 13:42:00,63.1,55.4,30.17,NNE,28,3.0,3.0,76,0.00,,,0.01,Wunderground v.1.13,2013-11-16 18:42:00,
2013-11-16 13:48:00,63.1,55.8,30.16,NW,311,3.0,5.0,77,0.00,,,0.01,Wunderground v.1.13,2013-11-16 18:48:00,
2013-11-16 13:54:00,62.7,55.4,30.16,NNW,333,3.0,4.0,77,0.00,,,0.01,Wunderground v.1.13,2013-11-16 18:54:00,
2013-11-16 14:00:00,62.9,55.6,30.16,NW,311,2.0,5.0,77,0.00,,,0.01,Wunderground v.1.13,2013-11-16 19:00:00,
2013-11-16 14:06:00,62.9,55.6,30.16,NNW,347,3.0,3.0,77,0.00,,,0.01,Wunderground v.1.13,2013-11-16 19:06:00,
2013-11-16 14:12:00,63.4,55.7,30.16,NNW,328,2.0,6.0,76,0.00,,,0.01,Wunderground v.1.13,2013-11-16 19:12:00,
2013-11-16 14:18:00,63.4,55.7,30.16,NNW,337,3.0,3.0,76,0.00,,,0.01,Wunderground v.1.13,2013-11-16 19:18:00,
2013-11-16 14:24:00,63.5,55.8,30.16,NNW,347,2.0,5.0,76,0.00,,,0.01,Wunderground v.1.13,2013-11-16 19:24:00,
2013-11-16 14:30:00,63.1,55.8,30.16,North,356,2.0,4.0,77,0.00,,,0.01,Wunderground v.1.13,2013-11-16 19:30:00,
2013-11-16 14:36:00,62.7,55.7,30.16,NW,319,2.0,5.0,78,0.00,,,0.01,Wunderground v.1.13,2013-11-16 19:36:00,
2013-11-16 14:42:00,62.6,55.6,30.16,NW,323,1.0,1.0,78,0.00,,,0.01,Wunderground v.1.13,2013-11-16 19:42:00,
2013-11-16 14:48:00,62.6,55.6,30.16,NNW,344,1.0,1.0,78,0.00,,,0.01,Wunderground v.1.13,2013-11-16 19:48:00,
2013-11-16 14:54:00,62.6,55.6,30.16,North,0,1.0,1.0,78,0.00,,,0.01,Wunderground v.1.13,2013-11-16 19:54:00,
2013-11-16 15:00:00,62.7,55.7,30.16,North,349,0.0,0.0,78,0.00,,,0.01,Wunderground v.1.13,2013-11-16 20:00:00,
2013-11-16 15:06:00,62.7,55.7,30.16,NNW,333,1.0,1.0,78,0.00,,,0.01,Wunderground v.1.13,2013-11-16 20:06:00,
2013-11-16 15:12:00,62.9,55.6,30.16,NNE,25,1.0,1.0,77,0.00,,,0.01,Wunderground v.1.13,2013-11-16 20:12:00,
2013-11-16 15:18:00,62.9,55.6,30.15,North,0,1.0,1.0,77,0.00,,,0.01,Wunderground v.1.13,2013-11-16 20:18:00,
2013-11-16 15:24:00,62.9,55.9,30.15,NE,41,0.0,2.0,78,0.00,,,0.01,Wunderground v.1.13,2013-11-16 20:24:00,
2013-11-16 15:30:00,62.7,55.7,30.15,NNE,30,1.0,1.0,78,0.00,,,0.01,Wunderground v.1.13,2013-11-16 20:30:00,
2013-11-16 15:38:00,62.7,55.7,30.15,NNW,339,0.0,0.0,78,0.00,,,0.01,Wunderground v.1.13,2013-11-16 20:38:00,
2013-11-16 15:44:00,62.6,55.6,30.15,ENE,65,0.0,0.0,78,0.00,,,0.01,Wunderground v.1.13,2013-11-16 20:44:00,
2013-11-16 15:50:00,62.6,55.6,30.15,NNE,31,0.0,3.0,78,0.00,,,0.01,Wunderground v.1.13,2013-11-16 20:50:00,
2013-11-16 15:57:00,62.4,55.4,30.15,NE,55,1.0,1.0,78,0.00,,,0.01,Wunderground v.1.13,2013-11-16 20:57:00,
2013-11-16 16:02:00,62.3,55.7,30.15,NE,40,1.0,2.0,79,0.00,,,0.01,Wunderground v.1.13,2013-11-16 21:02:00,
2013-11-16 16:08:00,62.1,55.5,30.15,NE,42,0.0,0.0,79,0.00,,,0.01,Wunderground v.1.13,2013-11-16 21:08:00,
2013-11-16 16:14:00,62.0,55.4,30.15,NNE,31,0.0,0.0,79,0.00,,,0.01,Wunderground v.1.13,2013-11-16 21:14:00,
2013-11-16 16:20:00,61.6,55.4,30.15,North,0,1.0,1.0,80,0.00,,,0.01,Wunderground v.1.13,2013-11-16 21:20:00,
2013-11-16 16:27:00,61.3,55.4,30.15,North,0,0.0,0.0,81,0.00,,,0.01,Wunderground v.1.13,2013-11-16 21:27:00,
2013-11-16 16:32:00,61.0,55.1,30.16,North,0,0.0,1.0,81,0.00,,,0.01,Wunderground v.1.13,2013-11-16 21:32:00,
2013-11-16 16:38:00,60.7,55.2,30.16,North,349,0.0,0.0,82,0.00,,,0.01,Wunderground v.1.13,2013-11-16 21:38:00,
2013-11-16 16:44:00,60.4,55.2,30.16,North,349,0.0,0.0,83,0.00,,,0.01,Wunderground v.1.13,2013-11-16 21:44:00,
2013-11-16 16:50:00,60.1,55.2,30.16,NNW,347,0.0,0.0,84,0.00,,,0.01,Wunderground v.1.13,2013-11-16 21:50:00,
2013-11-16 16:56:00,59.9,55.1,30.16,North,349,0.0,0.0,84,0.00,,,0.01,Wunderground v.1.13,2013-11-16 21:56:00,
2013-11-16 17:02:00,59.6,54.8,30.16,NNW,347,0.0,0.0,84,0.00,,,0.01,Wunderground v.1.13,2013-11-16 22:02:00,
2013-11-16 17:08:00,59.3,54.8,30.16,North,349,0.0,0.0,85,0.00,,,0.01,Wunderground v.1.13,2013-11-16 22:08:00,
2013-11-16 17:14:00,59.2,54.7,30.16,NNW,347,0.0,0.0,85,0.00,,,0.01,Wunderground v.1.13,2013-11-16 22:14:00,
2013-11-16 17:20:00,59.0,54.5,30.16,North,349,0.0,0.0,85,0.00,,,0.01,Wunderground v.1.13,2013-11-16 22:20:00,
2013-11-16 17:26:00,58.7,54.2,30.16,North,349,0.0,0.0,85,0.00,,,0.01,Wunderground v.1.13,2013-11-16 22:26:00,
2013-11-16 17:32:00,58.6,54.4,30.16,NNW,347,0.0,0.0,86,0.00,,,0.01,Wunderground v.1.13,2013-11-16 22:32:00,
2013-11-16 17:38:00,58.3,54.1,30.16,NNW,347,0.0,0.0,86,0.00,,,0.01,Wunderground v.1.13,2013-11-16 22:38:00,
2013-11-16 17:44:00,58.1,54.2,30.16,North,349,0.0,0.0,87,0.00,,,0.01,Wunderground v.1.13,2013-11-16 22:44:00,
2013-11-16 17:50:00,58.0,54.2,30.16,NNW,347,0.0,0.0,87,0.00,,,0.01,Wunderground v.1.13,2013-11-16 22:50:00,
2013-11-16 17:56:00,57.6,54.1,30.16,North,349,0.0,0.0,88,0.00,,,0.01,Wunderground v.1.13,2013-11-16 22:56:00,
2013-11-16 18:02:00,57.5,54.0,30.16,North,349,0.0,0.0,88,0.00,,,0.01,Wunderground v.1.13,2013-11-16 23:02:00,
2013-11-16 18:08:00,57.2,54.0,30.16,NNW,347,0.0,0.0,89,0.00,,,0.01,Wunderground v.1.13,2013-11-16 23:08:00,
2013-11-16 18:14:00,57.0,53.8,30.16,North,349,0.0,0.0,89,0.00,,,0.01,Wunderground v.1.13,2013-11-16 23:14:00,
2013-11-16 18:20:00,56.9,53.7,30.16,North,349,0.0,0.0,89,0.00,,,0.01,Wunderground v.1.13,2013-11-16 23:20:00,
2013-11-16 18:26:00,56.7,53.5,30.16,NNW,347,0.0,0.0,89,0.00,,,0.01,Wunderground v.1.13,2013-11-16 23:26:00,
2013-11-16 18:32:00,56.6,53.7,30.16,North,349,0.0,0.0,90,0.00,,,0.01,Wunderground v.1.13,2013-11-16 23:32:00,
2013-11-16 18:38:00,56.5,53.9,30.16,North,349,0.0,0.0,91,0.00,,,0.01,Wunderground v.1.13,2013-11-16 23:38:00,
2013-11-16 18:44:00,56.5,53.9,30.16,NNW,347,0.0,0.0,91,0.00,,,0.01,Wunderground v.1.13,2013-11-16 23:44:00,
2013-11-16 18:50:00,56.3,53.4,30.16,NNW,347,0.0,0.0,90,0.00,,,0.01,Wunderground v.1.13,2013-11-16 23:50:00,
2013-11-16 18:56:00,56.0,53.1,30.16,North,349,0.0,0.0,90,0.00,,,0.01,Wunderground v.1.13,2013-11-16 23:56:00,
2013-11-16 19:02:00,56.0,53.1,30.17,North,349,0.0,0.0,90,0.00,,,0.01,Wunderground v.1.13,2013-11-17 00:02:00,
2013-11-16 19:08:00,55.7,52.8,30.17,NNW,347,0.0,0.0,90,0.00,,,0.01,Wunderground v.1.13,2013-11-17 00:08:00,
2013-11-16 19:14:00,55.6,52.7,30.17,North,349,0.0,0.0,90,0.00,,,0.01,Wunderground v.1.13,2013-11-17 00:14:00,
2013-11-16 19:20:00,55.4,52.2,30.16,North,349,0.0,0.0,89,0.00,,,0.01,Wunderground v.1.13,2013-11-17 00:20:00,
2013-11-16 19:26:00,55.1,52.2,30.16,NNW,347,0.0,0.0,90,0.00,,,0.01,Wunderground v.1.13,2013-11-17 00:26:00,
2013-11-16 19:32:00,55.0,52.1,30.16,North,349,0.0,0.0,90,0.00,,,0.01,Wunderground v.1.13,2013-11-17 00:32:00,
2013-11-16 19:38:00,54.7,51.5,30.16,North,349,0.0,0.0,89,0.00,,,0.01,Wunderground v.1.13,2013-11-17 00:38:00,
2013-11-16 19:44:00,54.5,51.3,30.16,North,349,0.0,0.0,89,0.00,,,0.01,Wunderground v.1.13,2013-11-17 00:44:00,
2013-11-16 19:50:00,54.2,51.3,30.16,North,349,0.0,0.0,90,0.00,,,0.01,Wunderground v.1.13,2013-11-17 00:50:00,
2013-11-16 19:58:00,53.9,50.7,30.16,NNW,347,0.0,0.0,89,0.00,,,0.01,Wunderground v.1.13,2013-11-17 00:58:00,
2013-11-16 20:04:00,53.6,50.4,30.17,North,349,0.0,0.0,89,0.00,,,0.01,Wunderground v.1.13,2013-11-17 01:04:00,
2013-11-16 20:10:00,53.5,50.6,30.17,North,349,0.0,0.0,90,0.00,,,0.01,Wunderground v.1.13,2013-11-17 01:10:00,
2013-11-16 20:16:00,53.2,50.0,30.17,North,349,0.0,0.0,89,0.00,,,0.01,Wunderground v.1.13,2013-11-17 01:16:00,
2013-11-16 20:23:00,52.9,49.7,30.17,North,349,0.0,0.0,89,0.00,,,0.01,Wunderground v.1.13,2013-11-17 01:23:00,
2013-11-16 20:28:00,52.6,49.4,30.17,NNW,347,0.0,0.0,89,0.00,,,0.01,Wunderground v.1.13,2013-11-17 01:28:00,
2013-11-16 20:34:00,52.5,49.7,30.17,NNW,347,0.0,0.0,90,0.00,,,0.01,Wunderground v.1.13,2013-11-17 01:34:00,
2013-11-16 20:40:00,52.2,49.1,30.17,North,349,0.0,0.0,89,0.00,,,0.01,Wunderground v.1.13,2013-11-17 01:40:00,
2013-11-16 20:46:00,51.9,48.8,30.17,North,349,0.0,0.0,89,0.00,,,0.01,Wunderground v.1.13,2013-11-17 01:46:00,
2013-11-16 20:52:00,51.6,48.8,30.17,North,349,0.0,0.0,90,0.00,,,0.01,Wunderground v.1.13,2013-11-17 01:52:00,
2013-11-16 20:58:00,51.4,48.6,30.17,North,349,0.0,0.0,90,0.00,,,0.01,Wunderground v.1.13,2013-11-17 01:58:00,
2013-11-16 21:04:00,51.1,48.3,30.17,NNW,347,0.0,0.0,90,0.00,,,0.01,Wunderground v.1.13,2013-11-17 02:04:00,
2013-11-16 21:10:00,51.0,48.2,30.17,NNW,347,0.0,0.0,90,0.00,,,0.01,Wunderground v.1.13,2013-11-17 02:10:00,
2013-11-16 21:16:00,50.7,47.9,30.18,North,349,0.0,0.0,90,0.00,,,0.01,Wunderground v.1.13,2013-11-17 02:16:00,
2013-11-16 21:22:00,50.5,47.7,30.18,North,349,0.0,0.0,90,0.00,,,0.01,Wunderground v.1.13,2013-11-17 02:22:00,
2013-11-16 21:28:00,50.4,47.9,30.18,NNW,347,0.0,0.0,91,0.00,,,0.01,Wunderground v.1.13,2013-11-17 02:28:00,
2013-11-16 21:34:00,50.2,47.7,30.18,North,349,0.0,0.0,91,0.00,,,0.01,Wunderground v.1.13,2013-11-17 02:34:00,
2013-11-16 21:40:00,50.1,47.9,30.18,NNW,347,0.0,0.0,92,0.00,,,0.01,Wunderground v.1.13,2013-11-17 02:40:00,
2013-11-16 21:46:00,50.2,48.5,30.18,North,349,0.0,0.0,94,0.00,,,0.01,Wunderground v.1.13,2013-11-17 02:46:00,
2013-11-16 21:52:00,50.5,49.1,30.18,North,349,0.0,0.0,95,0.00,,,0.01,Wunderground v.1.13,2013-11-17 02:52:00,
2013-11-16 21:58:00,50.7,49.3,30.18,NNW,347,0.0,0.0,95,0.00,,,0.01,Wunderground v.1.13,2013-11-17 02:58:00,
2013-11-16 22:04:00,50.8,49.7,30.19,North,349,0.0,0.0,96,0.00,,,0.01,Wunderground v.1.13,2013-11-17 03:04:00,
2013-11-16 22:10:00,51.4,50.3,30.19,NNW,347,0.0,0.0,96,0.00,,,0.01,Wunderground v.1.13,2013-11-17 03:10:00,
2013-11-16 22:16:00,51.9,51.1,30.18,North,349,0.0,0.0,97,0.00,,,0.01,Wunderground v.1.13,2013-11-17 03:16:00,
2013-11-16 22:22:00,52.3,51.5,30.18,NNW,347,0.0,0.0,97,0.00,,,0.01,Wunderground v.1.13,2013-11-17 03:22:00,
2013-11-16 22:28:00,52.6,51.8,30.18,NNW,347,0.0,0.0,97,0.00,,,0.01,Wunderground v.1.13,2013-11-17 03:28:00,
2013-11-16 22:34:00,52.9,52.1,30.17,North,349,0.0,0.0,97,0.00,,,0.01,Wunderground v.1.13,2013-11-17 03:34:00,
2013-11-16 22:40:00,53.2,52.4,30.17,NNW,347,0.0,0.0,97,0.00,,,0.01,Wunderground v.1.13,2013-11-17 03:40:00,
2013-11-16 22:46:00,53.3,52.5,30.17,NNW,347,0.0,0.0,97,0.00,,,0.01,Wunderground v.1.13,2013-11-17 03:46:00,
2013-11-16 22:52:00,53.5,52.7,30.17,NNW,347,0.0,0.0,97,0.00,,,0.01,Wunderground v.1.13,2013-11-17 03:52:00,
2013-11-16 22:58:00,53.6,52.8,30.17,North,349,0.0,0.0,97,0.00,,,0.01,Wunderground v.1.13,2013-11-17 03:58:00,
2013-11-16 23:04:00,53.6,52.8,30.17,NNW,347,0.0,0.0,97,0.00,,,0.01,Wunderground v.1.13,2013-11-17 04:04:00,
2013-11-16 23:10:00,53.8,53.0,30.17,North,349,0.0,0.0,97,0.00,,,0.01,Wunderground v.1.13,2013-11-17 04:10:00,
2013-11-16 23:16:00,53.8,53.0,30.16,NNW,347,0.0,0.0,97,0.00,,,0.01,Wunderground v.1.13,2013-11-17 04:16:00,
2013-11-16 23:22:00,53.8,53.0,30.16,NNW,347,0.0,0.0,97,0.00,,,0.01,Wunderground v.1.13,2013-11-17 04:22:00,
2013-11-16 23:28:00,53.8,53.0,30.16,NNW,347,0.0,0.0,97,0.00,,,0.01,Wunderground v.1.13,2013-11-17 04:28:00,
2013-11-16 23:34:00,53.8,53.0,30.16,NNW,347,0.0,0.0,97,0.00,,,0.01,Wunderground v.1.13,2013-11-17 04:34:00,
2013-11-16 23:40:00,53.6,52.8,30.16,NNW,347,0.0,0.0,97,0.00,,,0.01,Wunderground v.1.13,2013-11-17 04:40:00,
2013-11-16 23:46:00,53.6,52.8,30.16,North,349,0.0,0.0,97,0.00,,,0.01,Wunderground v.1.13,2013-11-17 04:46:00,
2013-11-16 23:52:00,53.6,53.0,30.16,North,349,0.0,0.0,98,0.00,,,0.01,Wunderground v.1.13,2013-11-17 04:52:00,
2013-11-16 23:58:00,53.6,53.0,30.16,North,349,0.0,0.0,98,0.00,,,0.01,Wunderground v.1.13,2013-11-17 04:58:00,